Location: The Saddle
(36.8333°N, 80.3417°W)
Time: 03:37:08
(UTC-04:00)

Vanguard 3 - Pass Details

Date: 23 February 2024
Orbit: 510 x 3234 km, 33.3° (Epoch: 24 April)

Event Time Altitude Azimuth Distance (km) Brightness Sun altitude
Rises 22:54:38 0° 257° (WSW) 7,153 12.2 -54.7°
Reaches altitude 10° 22:59:25 10° 257° (WSW) 6,172 11.8 -55.3°
Enters shadow 23:10:44 43° 251° (WSW) 3,903 10.4 -56.9°
